TDRS 11

Last updated on Sat Aug 22 2026 00:02:51 GMT+0000 (Coordinated Universal Time)

1 39070U 13004A 26233.49310537 .00000078 00000+0 00000+0 0 9998 2 39070 3.6185 32.2292 0003745 36.3740 264.3897 1.00276330 47345
UTC large
Height (km)
Speed (km/s)
/
Latitude / Longitude
Inclination (degrees)
Orbital Period (minutes)
Azimuth
Elevation
Range (km)
Doppler Factor

Next 0 passes for location: London (51.5072 / 0.1276)

No passes found over London.
TDRS 11